• In Uzbekistan
  • List of Countries
  • For 7 days
  • Water Temperature
  • Satellite Maps
  • Weather Map
  • Weather Widgets
  • user-avatar
    Login

    Hourly Weather Hulskie

    Today, 21 July, Saturday

    Time Temperature Precipitation Wind Pressure Humidity
    00:00 +16°C° 0 mm 1 mps 711 mmHg 93%
    01:00 +15°C° 0 mm 1 mps 711 mmHg 94%
    02:00 +15°C° 0 mm 1 mps 711 mmHg 94%
    03:00 +15°C° 0 mm 1 mps 711 mmHg 95%
    04:00 +14°C° 0 mm 1 mps 711 mmHg 95%
    05:00 +14°C° 0 mm 1 mps 711 mmHg 95%
    06:00 +16°C° 0 mm 1 mps 711 mmHg 89%
    07:00 +19°C° 0 mm 1 mps 711 mmHg 83%
    08:00 +21°C° 0 mm 1 mps 712 mmHg 76%
    09:00 +21°C° 0 mm 2 mps 712 mmHg 69%
    10:00 +23°C° 0 mm 2 mps 712 mmHg 62%
    11:00 +25°C° 0 mm 2 mps 712 mmHg 55%
    12:00 +25°C° 0 mm 2 mps 712 mmHg 52%
    13:00 +26°C° 0 mm 2 mps 712 mmHg 50%
    14:00 +26°C° 0 mm 2 mps 712 mmHg 47%
    15:00 +26°C° 0 mm 2 mps 712 mmHg 49%
    16:00 +26°C° 0 mm 2 mps 711 mmHg 52%
    17:00 +25°C° 0 mm 2 mps 711 mmHg 54%
    18:00 +24°C° 0 mm 2 mps 711 mmHg 62%
    19:00 +22°C° 0 mm 1 mps 711 mmHg 71%
    20:00 +20°C° 0 mm 1 mps 710 mmHg 79%
    21:00 +19°C° 0 mm 1 mps 711 mmHg 81%
    22:00 +18°C° 0 mm 1 mps 711 mmHg 82%
    23:00 +16°C° 0 mm 1 mps 711 mmHg 84%

    Tomorrow, 22 July, Sunday

    Time Temperature Precipitation Wind Pressure Humidity
    00:00 +16°C° 0 mm 1 mps 711 mmHg 83%
    01:00 +15°C° 0 mm 1 mps 710 mmHg 83%
    02:00 +15°C° 0 mm 1 mps 710 mmHg 83%
    03:00 +15°C° 0 mm 1 mps 710 mmHg 83%
    04:00 +14°C° 0 mm 1 mps 710 mmHg 83%
    05:00 +14°C° 0 mm 1 mps 710 mmHg 83%
    06:00 +16°C° 0 mm 1 mps 710 mmHg 77%
    07:00 +18°C° 0 mm 0 mps 711 mmHg 71%
    08:00 +20°C° 0 mm 0 mps 711 mmHg 66%
    09:00 +21°C° 0 mm 0 mps 711 mmHg 61%
    10:00 +25°C° 0 mm 1 mps 711 mmHg 57%
    11:00 +26°C° 0 mm 1 mps 711 mmHg 53%
    12:00 +27°C° 0.1 mm 1 mps 711 mmHg 51%
    13:00 +27°C° 0.1 mm 1 mps 711 mmHg 50%
    14:00 +27°C° 0.1 mm 2 mps 710 mmHg 48%
    15:00 +27°C° 0.1 mm 2 mps 710 mmHg 52%
    16:00 +26°C° 0.1 mm 2 mps 710 mmHg 55%
    17:00 +26°C° 0.1 mm 2 mps 710 mmHg 59%
    18:00 +24°C° 0.1 mm 1 mps 710 mmHg 67%
    19:00 +22°C° 0.1 mm 1 mps 710 mmHg 75%
    20:00 +21°C° 0.1 mm 1 mps 709 mmHg 84%
    21:00 +20°C° 0 mm 1 mps 709 mmHg 86%
    22:00 +19°C° 0 mm 1 mps 709 mmHg 89%
    23:00 +18°C° 0 mm 1 mps 709 mmHg 91%

    Day after tomorrow, 23 July, Monday

    Time Temperature Precipitation Wind Pressure Humidity
    00:00 +16°C° 0 mm 1 mps 709 mmHg 92%
    01:00 +16°C° 0 mm 1 mps 709 mmHg 92%
    02:00 +16°C° 0 mm 1 mps 709 mmHg 92%
    03:00 +15°C° 0 mm 1 mps 709 mmHg 92%
    04:00 +15°C° 0 mm 1 mps 709 mmHg 92%
    05:00 +15°C° 0 mm 1 mps 709 mmHg 93%
    06:00 +16°C° 0 mm 1 mps 709 mmHg 87%
    07:00 +19°C° 0 mm 1 mps 709 mmHg 82%
    08:00 +20°C° 0 mm 2 mps 709 mmHg 77%
    09:00 +21°C° 0 mm 2 mps 709 mmHg 70%
    10:00 +24°C° 0 mm 2 mps 710 mmHg 63%
    11:00 +25°C° 0 mm 3 mps 710 mmHg 56%
    12:00 +26°C° 0 mm 3 mps 709 mmHg 54%
    13:00 +26°C° 0 mm 3 mps 709 mmHg 52%
    14:00 +27°C° 0 mm 3 mps 709 mmHg 50%
    15:00 +27°C° 0.1 mm 3 mps 709 mmHg 53%
    16:00 +26°C° 0.1 mm 3 mps 709 mmHg 56%
    17:00 +26°C° 0.1 mm 3 mps 709 mmHg 59%
    18:00 +24°C° 0.1 mm 3 mps 709 mmHg 67%
    19:00 +21°C° 0.1 mm 3 mps 709 mmHg 76%
    20:00 +20°C° 0.1 mm 2 mps 709 mmHg 85%
    21:00 +19°C° 0 mm 2 mps 709 mmHg 87%
    22:00 +18°C° 0 mm 2 mps 709 mmHg 90%
    23:00 +17°C° 0 mm 2 mps 709 mmHg 93%

    24 July, Tuesday

    Time Temperature Precipitation Wind Pressure Humidity
    00:00 +16°C° 0 mm 2 mps 709 mmHg 93%
    01:00 +16°C° 0 mm 2 mps 709 mmHg 93%
    02:00 +16°C° 0 mm 2 mps 709 mmHg 93%
    03:00 +15°C° 0 mm 2 mps 709 mmHg 94%
    04:00 +14°C° 0 mm 2 mps 709 mmHg 94%
    05:00 +14°C° 0 mm 1 mps 709 mmHg 95%
    06:00 +15°C° 0 mm 2 mps 710 mmHg 88%
    07:00 +17°C° 0 mm 2 mps 710 mmHg 82%
    08:00 +19°C° 0 mm 3 mps 710 mmHg 75%
    09:00 +20°C° 0 mm 3 mps 710 mmHg 70%
    10:00 +21°C° 0 mm 3 mps 710 mmHg 65%
    11:00 +23°C° 0 mm 4 mps 710 mmHg 60%
    12:00 +23°C° 0.1 mm 4 mps 710 mmHg 58%
    13:00 +25°C° 0.1 mm 4 mps 710 mmHg 57%
    14:00 +25°C° 0.1 mm 4 mps 710 mmHg 56%
    15:00 +25°C° 0.1 mm 4 mps 710 mmHg 58%
    16:00 +25°C° 0.1 mm 3 mps 710 mmHg 60%
    17:00 +25°C° 0.1 mm 3 mps 710 mmHg 63%
    18:00 +22°C° 0.1 mm 3 mps 709 mmHg 70%
    19:00 +20°C° 0.1 mm 2 mps 709 mmHg 78%
    20:00 +20°C° 0.1 mm 1 mps 709 mmHg 85%
    21:00 +19°C° 0 mm 1 mps 709 mmHg 87%
    22:00 +18°C° 0 mm 1 mps 709 mmHg 90%
    23:00 +16°C° 0 mm 1 mps 710 mmHg 92%

    25 July, Wednesday

    Time Temperature Precipitation Wind Pressure Humidity
    00:00 +16°C° 0 mm 1 mps 709 mmHg 92%
    01:00 +15°C° 0 mm 1 mps 709 mmHg 93%
    02:00 +15°C° 0 mm 1 mps 709 mmHg 93%
    03:00 +15°C° 0 mm 1 mps 709 mmHg 94%
    04:00 +14°C° 0 mm 1 mps 709 mmHg 94%
    05:00 +14°C° 0 mm 1 mps 709 mmHg 94%
    06:00 +16°C° 0 mm 2 mps 710 mmHg 89%
    07:00 +17°C° 0 mm 2 mps 710 mmHg 84%
    08:00 +19°C° 0 mm 2 mps 711 mmHg 80%
    09:00 +20°C° 0 mm 2 mps 711 mmHg 74%
    10:00 +21°C° 0 mm 3 mps 711 mmHg 69%
    11:00 +24°C° 0 mm 3 mps 711 mmHg 63%
    12:00 +24°C° 0.5 mm 3 mps 711 mmHg 67%
    13:00 +24°C° 0.5 mm 3 mps 710 mmHg 70%
    14:00 +24°C° 0.5 mm 3 mps 710 mmHg 73%
    15:00 +24°C° 0.5 mm 3 mps 710 mmHg 75%
    16:00 +24°C° 0.5 mm 3 mps 710 mmHg 76%
    17:00 +24°C° 0.5 mm 3 mps 710 mmHg 78%
    18:00 +21°C° 0.2 mm 2 mps 710 mmHg 83%
    19:00 +20°C° 0.2 mm 2 mps 710 mmHg 87%
    20:00 +20°C° 0.2 mm 1 mps 710 mmHg 91%
    21:00 +19°C° 0 mm 1 mps 710 mmHg 92%
    22:00 +19°C° 0 mm 1 mps 710 mmHg 94%
    23:00 +18°C° 0 mm 1 mps 710 mmHg 95%

    26 July, Thursday

    Time Temperature Precipitation Wind Pressure Humidity
    00:00 +18°C° 0 mm 1 mps 710 mmHg 95%
    01:00 +16°C° 0 mm 1 mps 710 mmHg 96%
    02:00 +16°C° 0 mm 1 mps 710 mmHg 96%
    03:00 +16°C° 0 mm 1 mps 710 mmHg 96%
    04:00 +16°C° 0 mm 1 mps 710 mmHg 97%
    05:00 +16°C° 0 mm 1 mps 710 mmHg 97%
    06:00 +18°C° 0.1 mm 1 mps 711 mmHg 95%
    07:00 +18°C° 0.1 mm 2 mps 711 mmHg 93%
    08:00 +19°C° 0.1 mm 2 mps 711 mmHg 91%
    09:00 +20°C° 0.1 mm 2 mps 711 mmHg 85%
    10:00 +23°C° 0.1 mm 2 mps 711 mmHg 79%
    11:00 +24°C° 0.1 mm 2 mps 711 mmHg 73%
    12:00 +25°C° 0 mm 2 mps 711 mmHg 66%
    13:00 +26°C° 0 mm 2 mps 711 mmHg 60%
    14:00 +27°C° 0 mm 2 mps 711 mmHg 53%
    15:00 +27°C° 0 mm 2 mps 711 mmHg 55%
    16:00 +27°C° 0 mm 3 mps 711 mmHg 57%
    17:00 +27°C° 0 mm 3 mps 711 mmHg 59%
    18:00 +25°C° 0.6 mm 2 mps 711 mmHg 69%
    19:00 +23°C° 0.6 mm 2 mps 711 mmHg 78%
    20:00 +21°C° 0.6 mm 1 mps 711 mmHg 88%
    21:00 +20°C° 0.4 mm 1 mps 711 mmHg 89%
    22:00 +19°C° 0.4 mm 1 mps 711 mmHg 91%
    23:00 +19°C° 0.4 mm 1 mps 712 mmHg 92%
    Show more